[[{"header":{"parameterUnit":"m.s-1","parameterCategory":1,"la1":30.2992,"la2":30.254,"lo1":-89.0895,"lo2":-89.0443,"dy":0.0025,"dx":0.0025,"nx":19,"ny":19,"refTime":"2026-05-18T09:00:00:Z","depth":0,"parameterNumber":2,"parameterNumberName":"U-component_of_WINDS"},"data":[0,0,0,-3.8552,-3.8554,-3.8646,-3.8646,-3.8773,-3.8774,0,0,0,0,0,0,0,0,0,0,0,-3.853,-3.8531,-3.8551,-3.8554,-3.8646,-3.8646,-3.8772,-3.8774,0,0,0,0,0,0,0,0,0,0,0,-3.853,-3.8531,-3.8532,-3.8554,-3.8646,-3.8646,-3.8772,-3.8699,0,0,0,0,0,0,0,0,0,0,-3.8609,-3.8595,-3.8531,-3.8532,-3.8555,-3.8645,-3.8646,-3.8696,-3.8704,-3.8735,0,-3.8764,0,-3.8771,-3.8783,-3.8783,0,0,0,-3.855,-3.8588,-3.8607,-3.8533,-3.8556,-3.8645,-3.8603,-3.87,-3.871,-3.8746,-3.8766,-3.877,-3.8773,-3.8784,-3.8784,-3.8978,-3.898,0,0,-3.8544,-3.855,-3.8601,-3.8614,-3.86,-3.86,-3.8606,-3.8706,-3.8728,-3.8766,-3.8773,-3.8775,-3.8785,-3.8786,-3.8977,-3.8979,0,0,0,-3.8533,-3.8546,-3.8563,-3.8609,-3.8625,-3.8603,-3.861,-3.8723,-3.8728,-3.8775,-3.8777,-3.8785,-3.8787,-3.8976,-3.8978,-3.9037,0,0,0,-3.853,-3.854,-3.8561,-3.8565,-3.8623,-3.8675,-3.8625,-3.8722,-3.8733,-3.8776,-3.8786,-3.8788,-3.8975,-3.8977,-3.9033,-3.9063,0,0,0,-3.8522,-3.8539,-3.8554,-3.8565,-3.8605,-3.8673,-3.8684,-3.8724,-3.8734,-3.8783,-3.8789,-3.8974,-3.8977,-3.9029,-3.9057,-3.9115,0,0,0,-3.8516,-3.8605,-3.8555,-3.8656,-3.8605,-3.871,-3.8683,-3.8762,-3.8811,-3.8786,-3.8975,-3.8978,-3.9028,-3.9053,-3.9111,-3.9164,-3.9187,0,0,-3.8631,-3.8619,-3.8679,-3.8636,-3.8752,-3.8695,-3.882,-3.886,-3.886,-3.8939,-3.8944,-3.9034,-3.9057,-3.9114,-3.9316,-3.9334,0,0,0,-3.8717,-3.8759,-3.8789,-3.8836,-3.8869,-3.89,-3.8921,-3.8936,-3.9003,-3.8902,-3.9071,-3.9085,-3.9118,-3.9143,-3.9159,-3.9186,-3.899,-3.899,-3.8989,-3.8887,-3.8882,-3.898,-3.8987,-3.9033,-3.9054,-3.9091,-3.9115,-3.9097,-3.9138,-3.916,-3.9283,-3.9312,-3.9324,-3.9353,-3.9189,-3.9189,-3.919,-3.919,-3.9054,-3.9113,-3.9088,-3.9173,-3.9169,-3.924,-3.9265,-3.925,-3.9315,-3.9265,-3.9295,-3.9239,-3.9344,-3.9369,-3.9194,-3.9193,-3.9193,-3.9192,-3.9192,-3.9164,-3.9191,-3.9208,-3.9277,-3.933,-3.9335,-3.9399,-3.9393,-3.9387,-3.9417,-3.9439,-3.9438,-3.9435,-3.9428,-3.9429,-3.9429,-3.9429,-3.943,-3.943,-3.9269,-3.9287,-3.9342,-3.9386,-3.9415,-3.9454,-3.9477,-3.9506,-3.9537,-3.9527,-3.9527,-3.9505,-3.9356,-3.9317,-3.9437,-3.9435,-3.9435,-3.9434,-3.9434,-3.9437,-3.9399,-3.9483,-3.9513,-3.9564,-3.9618,-3.961,-3.967,-3.9693,-3.9725,-3.9697,-3.9589,-3.9575,-3.9563,-3.9531,-3.9699,-3.9699,-3.9699,-3.9699,-3.9528,-3.9522,-3.9607,-3.9655,-3.9702,-3.9704,-3.9799,-3.9819,-3.9833,-3.9847,-3.9823,-3.9781,-3.9769,-3.9762,-3.9746,-3.9716,-3.9926,-3.9927,-3.9927,-3.9631,-3.9629,-3.9711,-3.9725,-3.9764,-3.9799,-3.9889,-3.9945,-3.9953,-3.9936,-3.9858,-3.9848,-3.978,-3.9759,-3.9737,-3.9711,-3.9656,0,0]},{"header":{"parameterUnit":"m.s-1","parameterCategory":1,"la1":30.2992,"la2":30.254,"lo1":-89.0895,"lo2":-89.0443,"dy":0.0025,"dx":0.0025,"nx":19,"ny":19,"refTime":"2026-05-18T09:00:00:Z","depth":0,"parameterNumber":3,"parameterNumberName":"V-component_of_WINDS"},"data":[0,0,0,1.4169,1.4169,1.4191,1.4191,1.4218,1.4218,0,0,0,0,0,0,0,0,0,0,0,1.4162,1.4162,1.4168,1.4169,1.4191,1.4191,1.4218,1.4218,0,0,0,0,0,0,0,0,0,0,0,1.4162,1.4162,1.4162,1.4169,1.4191,1.4191,1.4218,1.4201,0,0,0,0,0,0,0,0,0,0,1.418,1.4174,1.4162,1.4162,1.4169,1.4191,1.4191,1.4201,1.4202,1.4207,0,1.4212,0,1.4216,1.422,1.422,0,0,0,1.4169,1.4172,1.4179,1.4162,1.4169,1.4191,1.4181,1.4202,1.4204,1.421,1.4213,1.4214,1.4216,1.422,1.422,1.4252,1.4252,0,0,1.4168,1.4165,1.4177,1.418,1.4177,1.418,1.4182,1.4203,1.4205,1.4213,1.4214,1.4216,1.422,1.422,1.4252,1.4252,0,0,0,1.4164,1.4164,1.417,1.4179,1.4183,1.4181,1.4182,1.4204,1.4207,1.4215,1.4217,1.422,1.422,1.4251,1.4252,1.4257,0,0,0,1.4164,1.4162,1.417,1.4168,1.4183,1.4194,1.4184,1.4205,1.4208,1.4217,1.422,1.4221,1.4251,1.4252,1.4257,1.426,0,0,0,1.416,1.4162,1.4165,1.4168,1.4177,1.4194,1.4197,1.4206,1.4209,1.422,1.4221,1.4251,1.4252,1.4256,1.4259,1.4268,0,0,0,1.4156,1.4168,1.4165,1.418,1.4177,1.4197,1.4197,1.4212,1.4222,1.422,1.4251,1.4252,1.4256,1.4259,1.4268,1.4275,1.4278,0,0,1.417,1.417,1.4179,1.4177,1.4197,1.4194,1.4215,1.4226,1.4229,1.4244,1.4245,1.4257,1.4259,1.4268,1.4296,1.4298,0,0,0,1.4182,1.4189,1.4195,1.4205,1.4215,1.4224,1.4232,1.4236,1.425,1.4236,1.4263,1.4264,1.4269,1.4273,1.4275,1.428,1.4253,1.4253,1.4253,1.4197,1.4202,1.4218,1.4226,1.4236,1.4246,1.4254,1.4262,1.4262,1.4269,1.4273,1.4289,1.4294,1.4295,1.43,1.4277,1.4277,1.4277,1.4277,1.4218,1.4228,1.4231,1.4248,1.4253,1.4267,1.4278,1.4278,1.4291,1.4286,1.4291,1.4284,1.4298,1.4302,1.4278,1.4278,1.4278,1.4278,1.4278,1.4228,1.4234,1.424,1.4257,1.427,1.4278,1.4291,1.4295,1.4299,1.4304,1.4309,1.4309,1.431,1.4306,1.4307,1.4307,1.4307,1.4307,1.4307,1.4235,1.4243,1.4254,1.4268,1.4276,1.4288,1.43,1.4307,1.4317,1.4319,1.4319,1.432,1.4298,1.4293,1.4308,1.4307,1.4307,1.4307,1.4307,1.4254,1.4251,1.4269,1.4278,1.4295,1.4308,1.4314,1.433,1.4338,1.4345,1.4345,1.4329,1.4328,1.4326,1.4322,1.4344,1.4344,1.4344,1.4344,1.4262,1.4264,1.4284,1.4298,1.4312,1.432,1.434,1.435,1.436,1.4365,1.4363,1.4357,1.4356,1.4356,1.4354,1.435,1.4378,1.4378,1.4378,1.4275,1.4278,1.4294,1.4305,1.432,1.4333,1.4353,1.4368,1.4378,1.438,1.4369,1.4368,1.4359,1.4356,1.4355,1.4352,1.4344,0,0]}]]